This demonstration page uses our WeatherBlox Daily Observations layout. Learn more.

Left ArrowRight Arrow

Hourly Observations for October 19, 2021

Temp ( °F °C ) Dew Point ( °F °C ) Humidity (%) Winds ( mph kmh ) Pressure ( in mb ) Visibility ( mi km ) Precip ( " mm )
12:53 am 00:53 Clear 43 6.1 42 5.6 97 97 N N/A 30.17 1022 10 16 N/A
1:53 am 01:53 Clear 42 5.6 41 5 96 96 N N/A 30.18 1022 10 16 N/A
2:53 am 02:53 Clear 41 5 40 4.4 96 96 N N/A 30.19 1022 10 16 N/A
3:28 am 03:28 Mostly Clear with Mist and Fog 41 5 39 3.9 93 93 N N/A 30.21 1023 4 6 N/A
3:53 am 03:53 Clear 41 5 40 4.4 96 96 N N/A 30.19 1022 10 16 N/A
4:04 am 04:04 Clear with Mist and Fog 40 4.4 39 3.9 97 97 N N/A 30.21 1023 2 3 N/A
4:12 am 04:12 Clear 41 5 39 3.9 93 93 N N/A 30.21 1023 10 16 N/A
4:28 am 04:28 Mostly Clear 41 5 39 3.9 93 93 N N/A 30.21 1023 10 16 N/A
4:46 am 04:46 Mostly Cloudy with Mist and Fog 40 4.4 39 3.9 97 97 N N/A 30.21 1023 2 3 N/A
4:49 am 04:49 Mostly Cloudy with Mist and Fog 39 4 39 4 100 100 N N/A 30.21 1023 1 1 N/A
4:53 am 04:53 Mostly Cloudy with Fog 40 4.4 39 3.9 97 97 N N/A 30.19 1022 1 1 N/A
5:16 am 05:16 Partly Cloudy with Mist and Fog 40 4.4 39 3.9 97 97 N N/A 30.22 1023 2 2 N/A
5:31 am 05:31 Mostly Cloudy with Fog 40 4.4 39 3.9 97 97 N N/A 30.22 1023 0 0 N/A
5:40 am 05:40 Mostly Cloudy with Mist and Fog 40 4.4 39 3.9 97 97 N N/A 30.22 1023 1 2 N/A
5:42 am 05:42 Mostly Clear with Mist and Fog 40 4.4 39 3.9 97 97 N N/A 30.22 1023 2 3 N/A
5:44 am 05:44 Mostly Clear with Mist and Fog 40 4.4 39 3.9 97 97 N N/A 30.22 1023 4 6 N/A
5:53 am 05:53 Mostly Clear 40 4.4 39 3.9 97 97 N N/A 30.21 1023 10 16 N/A
6:53 am 06:53 Mostly Clear 39 3.9 38 3.3 96 96 N N/A 30.23 1024 10 16 N/A
7:06 am 07:06 Mostly Cloudy 39 3.9 38 3.3 96 96 N N/A 30.25 1025 10 16 N/A
7:30 am 07:30 Cloudy with Mist and Fog 39 3.9 38 3.3 96 96 N N/A 30.25 1025 2 3 N/A
7:34 am 07:34 Mostly Cloudy with Mist and Fog 38 3.3 38 3.3 100 100 N N/A 30.26 1025 1 1 N/A
7:53 am 07:53 Mostly Cloudy with Fog 38 3.3 38 3.3 100 100 N N/A 30.24 1024 0 0 N/A
8:16 am 08:16 Mostly Cloudy with Fog 39 3.9 39 3.9 100 100 N N/A 30.26 1025 1 1 N/A
8:25 am 08:25 Mostly Cloudy with Mist and Fog 40 4.4 39 3.9 97 97 N N/A 30.26 1025 2 3 N/A
8:27 am 08:27 Mostly Cloudy with Mist and Fog 40 4.4 40 4.4 100 100 N N/A 30.26 1025 3 5 N/A
8:39 am 08:39 Partly Cloudy 41 5 40 4.4 96 96 N N/A 30.26 1025 9 14 N/A
8:53 am 08:53 Sunny 43 6.1 42 5.6 97 97 N N/A 30.25 1024 10 16 N/A
9:53 am 09:53 Sunny 51 10.6 48 8.9 89 89 N N/A 30.25 1025 10 16 N/A
10:53 am 10:53 Sunny 59 15 49 9.4 69 69 N N/A 30.25 1024 10 16 N/A
11:53 am 11:53 Sunny 64 17.8 46 7.8 52 52 W 3 6 30.25 1024 10 16 N/A
12:53 pm 12:53 Sunny 70 21.1 46 7.8 42 42 WSW 7 11 30.23 1024 10 16 N/A
1:53 pm 13:53 Sunny 71 21.7 45 7.2 39 39 VRB 3 6 30.19 1023 10 16 N/A
2:53 pm 14:53 Sunny 72 22.2 43 6.1 35 35 VRB 5 7 30.17 1022 10 16 N/A
3:53 pm 15:53 Sunny 72 22.2 44 6.7 37 37 W 3 6 30.16 1021 10 16 N/A
4:53 pm 16:53 Sunny 70 21.1 45 7.2 41 41 SW 5 7 30.16 1021 10 16 N/A
5:53 pm 17:53 Sunny 66 18.9 48 8.9 52 52 N N/A 30.16 1021 10 16 N/A
6:53 pm 18:53 Sunny 60 15.6 49 9.4 67 67 N N/A 30.16 1021 10 16 N/A
7:53 pm 19:53 Clear 56 13.3 50 10 81 81 N N/A 30.17 1022 10 16 N/A
8:53 pm 20:53 Clear 52 11.1 49 9.4 89 89 N N/A 30.18 1022 10 16 N/A
9:53 pm 21:53 Clear 48 8.9 46 7.8 93 93 N N/A 30.17 1022 10 16 N/A
10:53 pm 22:53 Clear 47 8.3 46 7.8 97 97 N N/A 30.18 1022 10 16 N/A
11:53 pm 23:53 Clear 45 7.2 44 6.7 97 97 N N/A 30.19 1022 10 16 N/A

Powered by AerisWeather